Hourly Data Report for October 18, 2013

All times are specified in Local Standard Time (LST). Add 1 hour to adjust for Daylight Saving Time where and when it is observed.

PANGNIRTUNG
NUNAVUT

66°08'36.300" N
65°42'40.500" W
22.60 m
2403049
71826
WXP

Download Data

Hourly Data (October 2013)
Hourly Data Report for October 18, 2013
Temp Definition
°C
Dew Point Temp Definition
°C
Rel Hum Definition
%
Wind Dir Definition
10's deg

Wind Spd Definition
km/h
Visibility Definition
km
Stn Press Definition
kPa
Hmdx Definition


Wind Chill Definition


Weather Definition


TIME
00:00 0.8 -4.4 68 8 11   101.04     LegendNANA
01:00 1.2 -4.0 68 9 9   101.04     LegendNANA
02:00 1.5 -3.6 69 13 24   100.99     LegendNANA
03:00 1.6 -3.3 70 13 19   101.00     LegendNANA
04:00 2.0 -2.9 70 7 19   100.94     LegendNANA
05:00 2.3 -2.6 70 7 24   100.91     LegendNANA
06:00 2.6 -2.5 69 5 15   100.93     LegendNANA
07:00 2.8 -2.0 71 8 24   100.94     LegendNANA
08:00 3.4 -2.0 68 11 22   100.94     LegendNANA
09:00 3.6 -2.1 66 11 22   100.92     LegendNANA
10:00 3.4 -1.7 69 8 26   100.94     LegendNANA
11:00 3.6 -1.2 71 9 35   100.94     LegendNANA
12:00 3.6 -1.0 72 9 32   100.96     LegendNANA
13:00 4.0 -1.5 67 7 17   101.04     LegendNANA
14:00 3.7 -1.4 69 9 19   101.08     LegendNANA
15:00 3.4 -1.4 71 6 15   101.14     LegendNANA
16:00 3.6 -1.4 70 8 13   101.17     LegendNANA
17:00 3.2 -1.0 74 7 19   101.18     LegendNANA
18:00 3.0 -1.1 74 11 22   101.20     LegendNANA
19:00 2.9 -0.8 77 35 7   101.24     LegendNANA
20:00 3.1 -0.8 76 9 9   101.27     LegendNANA
21:00 3.1 -0.9 75 11 15   101.27     LegendNANA
22:00 2.9 -0.7 77 8 11   101.27     LegendNANA
23:00 3.3 -0.6 76 13 17   101.26     LegendNANA

Notes on Data Quality.

Legend

  • E = Estimated
  • M = Missing
  • NA = Not Available
  • ‡ = Partner data that is not subject to review by the National Climate Archives
Date modified: